This is the latest recevied weather packets stored in our database for station/object SP2ARQ-13. If no packets are shown the sender has not sent any weather packets the latest 10 day(s).
| Time | Temp. | Humidity | Pressure | Rain* | Wind** | Luminosity | Snow |
|---|---|---|---|---|---|---|---|
| 1777648341 | 25.56° C | 34% | 1024.4 hPa | - | - | - | - |
| 1777647440 | 26.67° C | 32% | 1024.5 hPa | - | - | - | - |
| 1777646540 | 26.67° C | 32% | 1024.6 hPa | - | - | - | - |
| 1777645640 | 26.67° C | 31% | 1024.7 hPa | - | - | - | - |
| 1777644740 | 27.22° C | 33% | 1024.8 hPa | - | - | - | - |
| 1777643840 | 26.11° C | 33% | 1024.8 hPa | - | - | - | - |
| 1777642939 | 26.11° C | 33% | 1024.9 hPa | - | - | - | - |
| 1777642039 | 27.78° C | 32% | 1025 hPa | - | - | - | - |
| 1777641139 | 27.78° C | 31% | 1025.1 hPa | - | - | - | - |
| 1777640239 | 27.22° C | 32% | 1025.2 hPa | - | - | - | - |
| 1777639339 | 27.22° C | 33% | 1025.4 hPa | - | - | - | - |
| 1777638439 | 27.78° C | 31% | 1025.5 hPa | - | - | - | - |
| 1777637539 | 27.22° C | 34% | 1025.6 hPa | - | - | - | - |
| 1777636638 | 27.78° C | 35% | 1025.6 hPa | - | - | - | - |
| 1777635738 | 27.22° C | 35% | 1025.7 hPa | - | - | - | - |
| 1777634838 | 26.67° C | 37% | 1025.7 hPa | - | - | - | - |
| 1777633938 | 25.56° C | 37% | 1025.9 hPa | - | - | - | - |
| 1777633038 | 25° C | 38% | 1025.9 hPa | - | - | - | - |
| 1777632137 | 25.56° C | 37% | 1026 hPa | - | - | - | - |
| 1777631237 | 25° C | 38% | 1026.1 hPa | - | - | - | - |
| 1777630336 | 25° C | 38% | 1026.1 hPa | - | - | - | - |
| 1777629472 | 24.44° C | 39% | 1026.2 hPa | - | - | - | - |
| 1777628571 | 23.89° C | 39% | 1026.3 hPa | - | - | - | - |
| 1777627671 | 22.78° C | 40% | 1026.5 hPa | - | - | - | - |
| 1777626771 | 22.78° C | 40% | 1026.5 hPa | - | - | - | - |
* Rain since midnight (hover to see other rain measurements)
** Current wind speed in m/s (hover to see current wind gust speed)